Weather History for Newburgh, NY

Change the Weather History Date:

Monday, March 18, 2013

  Actual Average Record
Temperature  
Mean Temperature 27 °F -  
Max Temperature 33 °F 43 °F 71 °F (2011)
Min Temperature 21 °F 26 °F 6 °F (1993)
Degree Days  
Heating Degree Days 38    
Moisture  
Dew Point 15 °F    
Average Humidity 63    
Maximum Humidity 100    
Minimum Humidity 41    
Precipitation  
Precipitation 0.00 in - - ()
Sea Level Pressure  
Sea Level Pressure 30.27 in    
Wind  
Wind Speed 7 mph (ESE)    
Max Wind Speed 15 mph    
Max Gust Speed 18 mph    
Visibility 10 miles    
Events Snow    
Averages and records for this station are not official NWS values.
T = Trace of Precipitation, MM = Missing Value Source: NWS Daily Summary

Daily Weather History Graph

Daily Weather History Graph

Search for Another Location

Airport:

Trip Planner

Search our weather history database for the weather conditions in past years. The results will help you decide how hot, cold, wet, or windy it might be!

Date:

Astronomy

Mar. 18, 2013 Rise Set
Actual Time 7:02 AM EDT 7:06 PM EDT
Civil Twilight 6:35 AM EDT 7:34 PM EDT
Nautical Twilight 6:02 AM EDT 8:06 PM EDT
Astronomical Twilight 5:30 AM EDT 8:39 PM EDT
Moon 10:56 AM EDT (3/18) 1:07 AM EDT (3/18)
Length of Visible Light 12h 59m
Length of Day
12h 03m
Waxing Crescent, 40% of the Moon is Illuminated
Mar 18
Waxing Crescent
Mar 19
First Quarter
Mar 27
Full
Apr 3
Last Quarter
Apr 10
New

Hourly Weather History & Observations

Time (EDT) Temp. Windchill Dew Point Humidity Pressure Visibility Wind Dir Wind Speed Gust Speed Precip Events Conditions
12:45 AM 26.6 °F 19.1 °F 12.2 °F 55% 30.32 in 10.0 mi Variable 6.9 mph - N/A   Clear
1:45 AM 23.0 °F 14.7 °F 12.2 °F 63% 30.33 in 10.0 mi Variable 6.9 mph - N/A   Clear
2:55 AM 23.0 °F 14.7 °F 10.4 °F 59% 30.34 in 10.0 mi Variable 6.9 mph - N/A   Clear
3:45 AM 23.0 °F 14.7 °F 10.4 °F 59% 30.36 in 10.0 mi Variable 6.9 mph - N/A   Clear
4:45 AM 21.2 °F 12.6 °F 8.6 °F 58% 30.37 in 10.0 mi Variable 6.9 mph - N/A   Clear
5:45 AM 21.2 °F - 8.6 °F 58% 30.39 in 10.0 mi Calm Calm - N/A   Clear
6:45 AM 21.2 °F - 8.6 °F 58% 30.40 in 10.0 mi Calm Calm - N/A   Scattered Clouds
7:45 AM 23.0 °F - 8.6 °F 54% 30.41 in 10.0 mi Calm Calm - N/A   Scattered Clouds
8:50 AM 24.8 °F 15.3 °F 8.6 °F 50% 30.40 in 20.0 mi ENE 9.2 mph - N/A   Mostly Cloudy
9:45 AM 26.6 °F 16.8 °F 8.6 °F 47% 30.40 in 20.0 mi East 10.4 mph - N/A   Mostly Cloudy
10:45 AM 28.4 °F 21.2 °F 8.6 °F 43% 30.38 in 20.0 mi East 6.9 mph - N/A   Mostly Cloudy
11:45 AM 30.2 °F 20.8 °F 10.4 °F 44% 30.37 in 20.0 mi ESE 11.5 mph - N/A   Mostly Cloudy
12:45 PM 32.0 °F 24.2 °F 10.4 °F 41% 30.05 in 20.0 mi South 9.2 mph - N/A   Overcast
1:45 PM 33.8 °F 27.0 °F 12.2 °F 41% 30.31 in 20.0 mi SE 8.1 mph - N/A   Overcast
2:45 PM 33.8 °F 26.4 °F 14.0 °F 44% 30.28 in 15.0 mi SSE 9.2 mph - N/A   Overcast
3:45 PM 33.8 °F 26.4 °F 15.8 °F 48% 30.26 in 15.0 mi SSE 9.2 mph - N/A   Overcast
4:45 PM 33.8 °F 26.4 °F 15.8 °F 48% 30.23 in 15.0 mi ESE 9.2 mph - N/A   Overcast
5:45 PM 33.8 °F 25.8 °F 15.8 °F 48% 30.20 in 1.5 mi ESE 10.4 mph 18.4 mph N/A Snow Light Snow
6:45 PM 26.6 °F 14.7 °F 26.6 °F 100% 30.19 in 1.0 mi ESE 15.0 mph - N/A Snow Snow
7:45 PM 26.6 °F 14.7 °F 24.8 °F 93% 30.16 in 1.0 mi ESE 15.0 mph - N/A Snow Snow
8:45 PM 26.6 °F 17.5 °F 26.6 °F 100% 30.14 in 0.5 mi East 9.2 mph - N/A Snow Snow
9:45 PM 26.6 °F 16.8 °F 26.6 °F 100% 30.12 in 0.5 mi ENE 10.4 mph - N/A Snow Snow
10:45 PM 26.6 °F 16.2 °F 26.6 °F 100% 30.09 in 1.0 mi ENE 11.5 mph - N/A Snow Snow
11:45 PM 28.4 °F 18.5 °F 26.6 °F 93% 30.05 in 1.5 mi ENE 11.5 mph - N/A Snow Light Snow